AAL1128 KMIA-SKRG

Flight info

Callsign AAL1128
Flight time N/A
Altitude 37000
Route GWAVA2 URSUS UP406 PUTUL DCT SIA DCT SUDSA DCT AKPEK AKPEK4C
Aircraft B38M/M-SDE1FGHILORVWXY/HB1

Departure

Time 2026-05-05 20:33
Airport Miami International Airport (KMIA)

Arrival

Time N/A
Airport Jose Maria Córdova International Airport (SKRG)
Time Latitude Longitude Altitude Speed Heading
2026-05-05 20:15 25.79731 -80.28351 20 ft 0 kts 357°
2026-05-05 20:22 25.79733 -80.28354 20 ft 0 kts 319°
2026-05-05 20:22 25.79733 -80.28357 21 ft 0 kts 278°
2026-05-05 20:22 25.79731 -80.28359 21 ft 0 kts 243°
2026-05-05 20:22 25.79724 -80.28366 21 ft 4 kts 220°
2026-05-05 20:23 25.79686 -80.28402 21 ft 11 kts 222°
2026-05-05 20:23 25.79643 -80.28498 23 ft 17 kts 267°
2026-05-05 20:23 25.79641 -80.28643 22 ft 20 kts 269°
2026-05-05 20:23 25.79641 -80.28801 22 ft 21 kts 274°
2026-05-05 20:24 25.79730 -80.28904 25 ft 21 kts 355°
2026-05-05 20:24 25.79881 -80.28908 26 ft 22 kts 354°
2026-05-05 20:24 25.79930 -80.29038 24 ft 22 kts 260°
2026-05-05 20:24 25.79917 -80.29212 23 ft 24 kts 269°
2026-05-05 20:25 25.79907 -80.29408 19 ft 27 kts 264°
2026-05-05 20:25 25.79899 -80.29597 17 ft 22 kts 268°
2026-05-05 20:25 25.79895 -80.29723 16 ft 16 kts 268°
2026-05-05 20:25 25.79893 -80.29810 15 ft 2 kts 269°
2026-05-05 20:26 25.79893 -80.29821 15 ft 0 kts 269°
2026-05-05 20:26 25.79893 -80.29825 15 ft 2 kts 269°
2026-05-05 20:27 25.79893 -80.29849 15 ft 4 kts 269°
2026-05-05 20:27 25.79892 -80.29897 15 ft 8 kts 271°
2026-05-05 20:27 25.79910 -80.29953 16 ft 5 kts 296°
2026-05-05 20:27 25.79914 -80.29964 15 ft 0 kts 296°
2026-05-05 20:31 25.79934 -80.30005 15 ft 14 kts 299°
2026-05-05 20:31 25.80007 -80.30121 17 ft 20 kts 332°
2026-05-05 20:32 25.80075 -80.30064 16 ft 14 kts 86°
2026-05-05 20:32 25.80084 -80.29847 15 ft 63 kts 87°
2026-05-05 20:32 25.80117 -80.29043 23 ft 143 kts 88°
2026-05-05 20:32 25.80175 -80.27749 331 ft 185 kts 88°
2026-05-05 20:33 25.80214 -80.26308 1465 ft 190 kts 90°
2026-05-05 20:33 25.79811 -80.24844 2500 ft 212 kts 116°
2026-05-05 20:33 25.78907 -80.23436 3238 ft 239 kts 139°
2026-05-05 20:33 25.77503 -80.22296 3898 ft 260 kts 144°
2026-05-05 20:34 25.75994 -80.21073 4717 ft 277 kts 145°
2026-05-05 20:34 25.74410 -80.19840 5779 ft 278 kts 154°
2026-05-05 20:34 25.72555 -80.19263 6815 ft 278 kts 179°
2026-05-05 20:34 25.70609 -80.19170 7777 ft 283 kts 180°
2026-05-05 20:35 25.68622 -80.19073 8756 ft 287 kts 181°
2026-05-05 20:35 25.66684 -80.19136 9968 ft 275 kts 191°
2026-05-05 20:35 25.64794 -80.19376 10930 ft 279 kts 190°
2026-05-05 20:35 25.62782 -80.19513 11362 ft 303 kts 178°
2026-05-05 20:36 25.60681 -80.18849 11873 ft 327 kts 156°
2026-05-05 20:36 25.58650 -80.17559 12430 ft 342 kts 153°
2026-05-05 20:36 25.56577 -80.16211 13187 ft 347 kts 153°
2026-05-05 20:36 25.54482 -80.14839 13969 ft 352 kts 152°
2026-05-05 20:37 25.52355 -80.13440 14635 ft 358 kts 152°
2026-05-05 20:37 25.50931 -80.12502 15091 ft 361 kts 152°
2026-05-05 20:37 25.48021 -80.10585 15970 ft 367 kts 152°
2026-05-05 20:37 25.45810 -80.09128 16628 ft 372 kts 152°
2026-05-05 20:38 25.43568 -80.07653 17271 ft 377 kts 152°
2026-05-05 20:38 25.41305 -80.06163 17897 ft 381 kts 151°
2026-05-05 20:38 25.39035 -80.04670 18474 ft 386 kts 151°
2026-05-05 20:38 25.36712 -80.03143 19008 ft 390 kts 151°
2026-05-05 20:39 25.34366 -80.01601 19561 ft 393 kts 152°
2026-05-05 20:39 25.32009 -80.00053 20102 ft 396 kts 152°
2026-05-05 20:39 25.29622 -79.98486 20630 ft 400 kts 152°
2026-05-05 20:39 25.27223 -79.96904 21150 ft 404 kts 150°
2026-05-05 20:40 25.24851 -79.95216 21662 ft 407 kts 150°
2026-05-05 20:40 25.22456 -79.93510 22174 ft 410 kts 150°
2026-05-05 20:40 25.20045 -79.91800 22674 ft 414 kts 150°
2026-05-05 20:40 25.17610 -79.90077 23153 ft 417 kts 150°
2026-05-05 20:41 25.15187 -79.88363 23644 ft 420 kts 150°
2026-05-05 20:41 25.13523 -79.87186 23907 ft 422 kts 150°
2026-05-05 20:41 25.11042 -79.85433 24304 ft 425 kts 150°
2026-05-05 20:41 25.08541 -79.83666 24706 ft 428 kts 150°
2026-05-05 20:42 25.05201 -79.81309 25235 ft 432 kts 150°
2026-05-05 20:42 25.02655 -79.79512 25633 ft 435 kts 150°
2026-05-05 20:42 25.00097 -79.77709 26015 ft 438 kts 150°
2026-05-05 20:42 24.97520 -79.75893 26395 ft 441 kts 150°
2026-05-05 20:43 24.95794 -79.74676 26646 ft 443 kts 150°
2026-05-05 20:43 24.93186 -79.72840 27018 ft 446 kts 150°
2026-05-05 20:43 24.90563 -79.70994 27384 ft 449 kts 150°
2026-05-05 20:43 24.87924 -79.69133 27743 ft 452 kts 150°
2026-05-05 20:44 24.85270 -79.67261 28107 ft 455 kts 150°
2026-05-05 20:44 24.82597 -79.65377 28465 ft 457 kts 150°
2026-05-05 20:44 24.79910 -79.63484 28815 ft 460 kts 150°
2026-05-05 20:44 24.77203 -79.61577 29161 ft 463 kts 150°
2026-05-05 20:45 24.71743 -79.57736 29841 ft 469 kts 149°
2026-05-05 20:45 24.68991 -79.55801 30158 ft 471 kts 149°
2026-05-05 20:45 24.66219 -79.53852 30433 ft 474 kts 149°
2026-05-05 20:46 24.63425 -79.51891 30700 ft 477 kts 149°
2026-05-05 20:46 24.60618 -79.49920 30968 ft 480 kts 149°
2026-05-05 20:46 24.57793 -79.47939 31238 ft 483 kts 149°
2026-05-05 20:46 24.54958 -79.45951 31512 ft 485 kts 149°
2026-05-05 20:47 24.52099 -79.43947 31764 ft 488 kts 149°
2026-05-05 20:47 24.49226 -79.41935 32025 ft 491 kts 149°
2026-05-05 20:47 24.46338 -79.39913 32278 ft 494 kts 149°
2026-05-05 20:47 24.43434 -79.37882 32533 ft 497 kts 149°
2026-05-05 20:48 24.40507 -79.35835 32796 ft 499 kts 149°
2026-05-05 20:48 24.37610 -79.33810 33042 ft 502 kts 149°
2026-05-05 20:48 24.34656 -79.31747 33290 ft 504 kts 148°
2026-05-05 20:48 24.31690 -79.29674 33539 ft 507 kts 148°
2026-05-05 20:49 24.28730 -79.27549 33782 ft 510 kts 147°
2026-05-05 20:49 24.25757 -79.25411 34018 ft 513 kts 147°
2026-05-05 20:49 24.22767 -79.23266 34239 ft 515 kts 147°
2026-05-05 20:49 24.19769 -79.21117 34498 ft 515 kts 147°
2026-05-05 20:50 24.16766 -79.18966 34804 ft 515 kts 147°
2026-05-05 20:50 24.13766 -79.16819 35077 ft 515 kts 147°
2026-05-05 20:50 24.10763 -79.14670 35362 ft 515 kts 147°
2026-05-05 20:50 24.07767 -79.12527 35636 ft 515 kts 147°
2026-05-05 20:51 24.04770 -79.10386 35907 ft 514 kts 147°
2026-05-05 20:51 24.01746 -79.08294 36161 ft 513 kts 154°
2026-05-05 20:51 23.98449 -79.06878 36470 ft 506 kts 169°
2026-05-05 20:51 23.95012 -79.06091 36671 ft 505 kts 172°
2026-05-05 20:52 23.91563 -79.05347 36861 ft 506 kts 172°
2026-05-05 20:52 23.88104 -79.04632 37018 ft 506 kts 173°
2026-05-05 20:52 23.81182 -79.03248 37013 ft 503 kts 173°
2026-05-05 20:53 23.74325 -79.01891 37017 ft 504 kts 173°
2026-05-05 20:53 23.67423 -79.00527 37021 ft 503 kts 173°
2026-05-05 20:54 23.60519 -78.99164 37019 ft 503 kts 173°
2026-05-05 20:54 23.53616 -78.97802 37021 ft 503 kts 173°
2026-05-05 20:55 23.46765 -78.96452 37016 ft 503 kts 173°
2026-05-05 20:55 23.39860 -78.95093 37015 ft 503 kts 173°
2026-05-05 20:56 23.32965 -78.93737 37015 ft 503 kts 173°
2026-05-05 20:56 23.26072 -78.92383 37019 ft 502 kts 173°
2026-05-05 20:57 23.19232 -78.91041 37014 ft 502 kts 173°
2026-05-05 20:57 23.12349 -78.89690 37016 ft 502 kts 173°
2026-05-05 20:58 23.05467 -78.88340 37016 ft 502 kts 173°
2026-05-05 20:58 22.98600 -78.86994 37017 ft 501 kts 173°
2026-05-05 20:59 22.91767 -78.85657 37013 ft 501 kts 173°
2026-05-05 20:59 22.84900 -78.84314 37016 ft 501 kts 173°
2026-05-05 21:00 22.78033 -78.82972 37016 ft 501 kts 173°
2026-05-05 21:00 22.71174 -78.81634 37017 ft 500 kts 173°
2026-05-05 21:01 22.64368 -78.80307 37017 ft 500 kts 173°
2026-05-05 21:01 22.57521 -78.78974 37014 ft 499 kts 173°
2026-05-05 21:02 22.50679 -78.77644 37016 ft 498 kts 173°
2026-05-05 21:02 22.43843 -78.76316 37021 ft 498 kts 173°
2026-05-05 21:03 22.37026 -78.74994 37022 ft 497 kts 173°
2026-05-05 21:03 22.30218 -78.73674 37019 ft 497 kts 173°
2026-05-05 21:04 22.23453 -78.72364 37018 ft 496 kts 173°
2026-05-05 21:04 22.16651 -78.71048 37012 ft 497 kts 173°
2026-05-05 21:05 22.09862 -78.69736 37019 ft 495 kts 173°
2026-05-05 21:05 22.03066 -78.68423 37011 ft 495 kts 173°
2026-05-05 21:06 21.96320 -78.67122 37015 ft 495 kts 173°
2026-05-05 21:06 21.89539 -78.65815 37008 ft 495 kts 172°
2026-05-05 21:07 21.82753 -78.64509 37007 ft 495 kts 172°
2026-05-05 21:07 21.75976 -78.63206 37004 ft 495 kts 172°
2026-05-05 21:08 21.69194 -78.61903 37007 ft 494 kts 172°
2026-05-05 21:08 21.62424 -78.60603 37005 ft 494 kts 172°
2026-05-05 21:09 21.55662 -78.59306 37007 ft 493 kts 172°
2026-05-05 21:09 21.48898 -78.58010 37005 ft 493 kts 172°
2026-05-05 21:10 21.42128 -78.56714 37006 ft 493 kts 172°
2026-05-05 21:10 21.35414 -78.55430 37006 ft 493 kts 172°
2026-05-05 21:11 21.28658 -78.54140 37004 ft 492 kts 172°
2026-05-05 21:11 21.21915 -78.52853 37006 ft 491 kts 172°
2026-05-05 21:12 21.15221 -78.51576 37002 ft 490 kts 172°
2026-05-05 21:12 21.08501 -78.50296 37003 ft 490 kts 172°
2026-05-05 21:13 21.01791 -78.49018 36999 ft 489 kts 172°
2026-05-05 21:13 20.95087 -78.47743 36999 ft 488 kts 172°
2026-05-05 21:14 20.88392 -78.46471 36997 ft 488 kts 172°
2026-05-05 21:14 20.81743 -78.45209 36994 ft 488 kts 172°
2026-05-05 21:15 20.75061 -78.43942 36997 ft 487 kts 172°
2026-05-05 21:15 20.68374 -78.42674 36995 ft 487 kts 172°
2026-05-05 21:16 20.61695 -78.41410 36997 ft 487 kts 172°
2026-05-05 21:16 20.55027 -78.40148 36996 ft 486 kts 172°
2026-05-05 21:17 20.48400 -78.38896 37005 ft 486 kts 172°
2026-05-05 21:17 20.41731 -78.37637 36993 ft 486 kts 172°
2026-05-05 21:18 20.35067 -78.36379 36993 ft 485 kts 172°
2026-05-05 21:18 20.28418 -78.35126 36993 ft 485 kts 172°
2026-05-05 21:19 20.21802 -78.33880 37000 ft 485 kts 172°
2026-05-05 21:19 20.15156 -78.32629 36993 ft 485 kts 172°
2026-05-05 21:20 20.08510 -78.31380 36995 ft 484 kts 172°
2026-05-05 21:20 20.01869 -78.30132 36994 ft 484 kts 172°
2026-05-05 21:21 19.95270 -78.28663 36998 ft 485 kts 168°
2026-05-05 21:21 19.88702 -78.26978 36993 ft 485 kts 168°
2026-05-05 21:22 19.82166 -78.25332 36994 ft 485 kts 168°
2026-05-05 21:22 19.75604 -78.23683 36989 ft 485 kts 168°
2026-05-05 21:23 19.69029 -78.22033 36991 ft 485 kts 168°
2026-05-05 21:23 19.62467 -78.20387 36990 ft 484 kts 168°
2026-05-05 21:24 19.55900 -78.18741 36989 ft 484 kts 168°
2026-05-05 21:24 19.49341 -78.17099 36991 ft 484 kts 168°
2026-05-05 21:25 19.42778 -78.15457 36986 ft 484 kts 168°
2026-05-05 21:25 19.36237 -78.13822 36986 ft 485 kts 168°
2026-05-05 21:26 19.29666 -78.12180 36985 ft 485 kts 168°
2026-05-05 21:26 19.24197 -78.10815 36985 ft 485 kts 168°
2026-05-05 21:27 19.17618 -78.09175 36984 ft 485 kts 168°
2026-05-05 21:27 19.09973 -78.07270 36981 ft 485 kts 168°
2026-05-05 21:28 19.04503 -78.05908 36982 ft 485 kts 168°
2026-05-05 21:28 18.97931 -78.04273 36981 ft 485 kts 168°
2026-05-05 21:29 18.91353 -78.02638 36982 ft 485 kts 168°
2026-05-05 21:29 18.84791 -78.01008 36980 ft 485 kts 168°
2026-05-05 21:30 18.78220 -77.99377 36968 ft 485 kts 168°
2026-05-05 21:30 18.71654 -77.97749 36959 ft 484 kts 168°
2026-05-05 21:31 18.65135 -77.96134 36948 ft 484 kts 168°
2026-05-05 21:31 18.58583 -77.94511 36938 ft 483 kts 168°
2026-05-05 21:32 18.52027 -77.92889 36936 ft 482 kts 168°
2026-05-05 21:32 18.45444 -77.91487 36941 ft 482 kts 170°
2026-05-05 21:33 18.38865 -77.90102 36940 ft 481 kts 170°
2026-05-05 21:33 18.32332 -77.88724 36954 ft 481 kts 170°
2026-05-05 21:34 18.25774 -77.87341 36963 ft 481 kts 170°
2026-05-05 21:34 18.19254 -77.85967 36970 ft 480 kts 170°
2026-05-05 21:35 18.12703 -77.84588 36977 ft 480 kts 170°
2026-05-05 21:35 18.06157 -77.83211 36978 ft 479 kts 170°
2026-05-05 21:36 17.99602 -77.81833 36976 ft 479 kts 170°
2026-05-05 21:36 17.93118 -77.80471 36974 ft 478 kts 170°
2026-05-05 21:37 17.86587 -77.79100 36971 ft 478 kts 170°
2026-05-05 21:37 17.80064 -77.77732 36972 ft 477 kts 170°
2026-05-05 21:38 17.73553 -77.76367 36973 ft 477 kts 171°
2026-05-05 21:38 17.67041 -77.75003 36970 ft 477 kts 171°
2026-05-05 21:39 17.60525 -77.73640 36971 ft 476 kts 170°
2026-05-05 21:39 17.54067 -77.72289 36973 ft 476 kts 171°
2026-05-05 21:40 17.47578 -77.70933 36973 ft 476 kts 170°
2026-05-05 21:40 17.41074 -77.69575 36972 ft 475 kts 170°
2026-05-05 21:41 17.34580 -77.68219 36970 ft 475 kts 171°
2026-05-05 21:41 17.28100 -77.66868 36974 ft 475 kts 171°
2026-05-05 21:42 17.21616 -77.65517 36970 ft 474 kts 170°
2026-05-05 21:42 17.15178 -77.64177 36965 ft 474 kts 171°
2026-05-05 21:43 17.08691 -77.62827 36968 ft 474 kts 171°
2026-05-05 21:43 17.02206 -77.61478 36964 ft 474 kts 171°
2026-05-05 21:44 16.95773 -77.60142 36967 ft 474 kts 171°
2026-05-05 21:44 16.89306 -77.58799 36968 ft 474 kts 171°
2026-05-05 21:45 16.82829 -77.57455 36971 ft 474 kts 171°
2026-05-05 21:45 16.76359 -77.56113 36964 ft 473 kts 171°
2026-05-05 21:46 16.69933 -77.54782 36965 ft 473 kts 171°
2026-05-05 21:46 16.63470 -77.53444 36963 ft 473 kts 171°
2026-05-05 21:47 16.57005 -77.52106 36963 ft 473 kts 171°
2026-05-05 21:47 16.50550 -77.50771 36965 ft 473 kts 171°
2026-05-05 21:48 16.44086 -77.49435 36956 ft 472 kts 171°
2026-05-05 21:48 16.37678 -77.48112 36953 ft 472 kts 171°
2026-05-05 21:49 16.31227 -77.46781 36955 ft 472 kts 171°
2026-05-05 21:49 16.24781 -77.45451 36950 ft 471 kts 171°
2026-05-05 21:50 16.18351 -77.44126 36957 ft 471 kts 171°
2026-05-05 21:50 16.11924 -77.42803 36954 ft 470 kts 171°
2026-05-05 21:51 16.05501 -77.41481 36953 ft 470 kts 171°
2026-05-05 21:51 15.99125 -77.40169 36951 ft 469 kts 171°
2026-05-05 21:52 15.89509 -77.38193 36953 ft 469 kts 171°
2026-05-05 21:53 15.83098 -77.36877 36952 ft 469 kts 171°
2026-05-05 21:53 15.76701 -77.35564 36950 ft 468 kts 171°
2026-05-05 21:54 15.70301 -77.34252 36949 ft 468 kts 171°
2026-05-05 21:54 15.63949 -77.32949 36951 ft 468 kts 171°
2026-05-05 21:55 15.57552 -77.31640 36951 ft 468 kts 171°
2026-05-05 21:55 15.51165 -77.30332 36948 ft 467 kts 171°
2026-05-05 21:56 15.44779 -77.29026 36947 ft 467 kts 171°
2026-05-05 21:56 15.38434 -77.27729 36946 ft 467 kts 171°
2026-05-05 21:57 15.32048 -77.26424 36946 ft 467 kts 171°
2026-05-05 21:57 15.25671 -77.25122 36947 ft 466 kts 171°
2026-05-05 21:58 15.19296 -77.23821 36942 ft 466 kts 171°
2026-05-05 21:58 15.12972 -77.22531 36943 ft 466 kts 171°
2026-05-05 21:59 15.06610 -77.21234 36939 ft 465 kts 171°
2026-05-05 21:59 15.00256 -77.19942 36937 ft 465 kts 171°
2026-05-05 22:00 14.93897 -77.18653 36936 ft 465 kts 172°
2026-05-05 22:00 14.87543 -77.17366 36938 ft 464 kts 172°
2026-05-05 22:01 14.81233 -77.16089 36936 ft 464 kts 172°
2026-05-05 22:01 14.74886 -77.14805 36933 ft 464 kts 172°
2026-05-05 22:02 14.68547 -77.13523 36931 ft 464 kts 172°
2026-05-05 22:02 14.62208 -77.12242 36930 ft 463 kts 172°
2026-05-05 22:03 14.55915 -77.10971 36928 ft 463 kts 172°
2026-05-05 22:03 14.49578 -77.09692 36928 ft 463 kts 172°
2026-05-05 22:04 14.43247 -77.08415 36924 ft 463 kts 172°
2026-05-05 22:04 14.36953 -77.07146 36925 ft 463 kts 172°
2026-05-05 22:05 14.30620 -77.05870 36929 ft 463 kts 172°
2026-05-05 22:05 14.24289 -77.04595 36929 ft 463 kts 172°
2026-05-05 22:06 14.18001 -77.03330 36919 ft 463 kts 172°
2026-05-05 22:06 14.11666 -77.02055 36918 ft 462 kts 172°
2026-05-05 22:07 14.05354 -77.00786 36919 ft 462 kts 172°
2026-05-05 22:07 13.99028 -76.99515 36916 ft 462 kts 171°
2026-05-05 22:08 13.92754 -76.98256 36916 ft 461 kts 171°
2026-05-05 22:08 13.86450 -76.96990 36914 ft 461 kts 171°
2026-05-05 22:09 13.80142 -76.95725 36912 ft 461 kts 171°
2026-05-05 22:09 13.73839 -76.94462 36915 ft 461 kts 171°
2026-05-05 22:10 13.67542 -76.93200 36914 ft 461 kts 171°
2026-05-05 22:10 13.61291 -76.91948 36910 ft 460 kts 171°
2026-05-05 22:11 13.54992 -76.90687 36912 ft 460 kts 171°
2026-05-05 22:11 13.48706 -76.89430 36908 ft 460 kts 171°
2026-05-05 22:12 13.42411 -76.88172 36905 ft 460 kts 171°
2026-05-05 22:12 13.36167 -76.86924 36908 ft 460 kts 171°
2026-05-05 22:13 13.29873 -76.85667 36906 ft 460 kts 171°
2026-05-05 22:13 13.23584 -76.84411 36904 ft 459 kts 171°
2026-05-05 22:14 13.17350 -76.83168 36903 ft 459 kts 171°
2026-05-05 22:14 13.11075 -76.81916 36899 ft 459 kts 171°
2026-05-05 22:15 13.04794 -76.80665 36900 ft 459 kts 171°
2026-05-05 22:15 12.99575 -76.79625 36899 ft 459 kts 171°
2026-05-05 22:16 12.93298 -76.78375 36901 ft 458 kts 171°
2026-05-05 22:16 12.87074 -76.77137 36900 ft 458 kts 171°
2026-05-05 22:17 12.80798 -76.75889 36897 ft 458 kts 171°
2026-05-05 22:17 12.74530 -76.74642 36898 ft 458 kts 171°
2026-05-05 22:18 12.68267 -76.73398 36896 ft 458 kts 171°
2026-05-05 22:18 12.62047 -76.72162 36896 ft 458 kts 171°
2026-05-05 22:19 12.55768 -76.70916 36896 ft 458 kts 171°
2026-05-05 22:19 12.49549 -76.69682 36892 ft 458 kts 171°
2026-05-05 22:20 12.43280 -76.68439 36894 ft 458 kts 171°
2026-05-05 22:20 12.37020 -76.67198 36891 ft 458 kts 171°
2026-05-05 22:21 12.30749 -76.65955 36888 ft 458 kts 171°
2026-05-05 22:21 12.24507 -76.64720 36888 ft 458 kts 171°
2026-05-05 22:22 12.18244 -76.63480 36886 ft 458 kts 171°
2026-05-05 22:22 12.11972 -76.62239 36885 ft 458 kts 170°
2026-05-05 22:23 12.05745 -76.61007 36886 ft 458 kts 170°
2026-05-05 22:23 11.99470 -76.59767 36891 ft 459 kts 170°
2026-05-05 22:24 11.93197 -76.58528 36888 ft 459 kts 171°
2026-05-05 22:24 11.86922 -76.57289 36886 ft 459 kts 170°
2026-05-05 22:25 11.80647 -76.56051 36888 ft 459 kts 171°
2026-05-05 22:25 11.74399 -76.54818 36884 ft 459 kts 170°
2026-05-05 22:26 11.68127 -76.53581 36883 ft 459 kts 170°
2026-05-05 22:26 11.61859 -76.52346 36884 ft 459 kts 170°
2026-05-05 22:27 11.55589 -76.51111 36880 ft 458 kts 170°
2026-05-05 22:27 11.49358 -76.49884 36882 ft 458 kts 170°
2026-05-05 22:28 11.43098 -76.48652 36877 ft 458 kts 170°
2026-05-05 22:28 11.36833 -76.47419 36879 ft 458 kts 170°
2026-05-05 22:29 11.30583 -76.46190 36877 ft 457 kts 170°
2026-05-05 22:29 11.24376 -76.44970 36876 ft 457 kts 170°
2026-05-05 22:30 11.18129 -76.43743 36877 ft 456 kts 170°
2026-05-05 22:30 11.11895 -76.42518 36872 ft 456 kts 170°
2026-05-05 22:31 11.05707 -76.41304 36872 ft 455 kts 170°
2026-05-05 22:31 10.99481 -76.40082 36865 ft 455 kts 170°
2026-05-05 22:32 10.93236 -76.38857 36875 ft 458 kts 170°
2026-05-05 22:32 10.86964 -76.37628 36874 ft 458 kts 169°
2026-05-05 22:33 10.80708 -76.36401 36872 ft 458 kts 170°
2026-05-05 22:33 10.74441 -76.35174 36871 ft 457 kts 170°
2026-05-05 22:34 10.68221 -76.33956 36871 ft 457 kts 169°
2026-05-05 22:34 10.61974 -76.32734 36869 ft 457 kts 170°
2026-05-05 22:35 10.55725 -76.31511 36869 ft 456 kts 170°
2026-05-05 22:35 10.49481 -76.30290 36868 ft 457 kts 169°
2026-05-05 22:36 10.43242 -76.29070 36869 ft 457 kts 169°
2026-05-05 22:36 10.37027 -76.27856 36867 ft 457 kts 169°
2026-05-05 22:37 10.30768 -76.26634 36865 ft 457 kts 170°
2026-05-05 22:37 10.24511 -76.25412 36863 ft 458 kts 170°
2026-05-05 22:38 10.18252 -76.24191 36867 ft 458 kts 169°
2026-05-05 22:38 10.12030 -76.22977 36862 ft 458 kts 170°
2026-05-05 22:39 10.05762 -76.21755 36863 ft 458 kts 169°
2026-05-05 22:39 9.99506 -76.20535 36863 ft 458 kts 169°
2026-05-05 22:40 9.93249 -76.19316 36861 ft 458 kts 169°
2026-05-05 22:40 9.87019 -76.18103 36861 ft 458 kts 169°
2026-05-05 22:41 9.80755 -76.16883 36861 ft 457 kts 169°
2026-05-05 22:41 9.74537 -76.15673 36862 ft 457 kts 169°
2026-05-05 22:42 9.68279 -76.14455 36860 ft 457 kts 169°
2026-05-05 22:42 9.62023 -76.13239 36859 ft 458 kts 169°
2026-05-05 22:43 9.55793 -76.12028 36859 ft 457 kts 169°
2026-05-05 22:43 9.49535 -76.10811 36857 ft 457 kts 169°
2026-05-05 22:44 9.43276 -76.09595 36857 ft 457 kts 169°
2026-05-05 22:44 9.37022 -76.08381 36854 ft 457 kts 169°